Simultaneous Nadir Overpasses (SNOs) Predictions

Prediction of SNOs between GOES-17 and TERRA Satellite Orbit:

Table of predicted SNOs for the next 14.0 days since TLE Epoch: 10/12/2024
Index Date Time (GOES-17) GOES-17 Lat,Lon TERRA Lat,Lon Distance(km) Time Diff (sec)
1 10/12/2024 04:57:34 0.00,-104.70 -0.88,-109.00 488.09 80
2 10/14/2024 04:36:55 0.00,-104.72 -0.01,-104.66 6.47 80
3 10/16/2024 16:38:42 -0.00,-104.79 0.04,-105.14 39.55 80
4 10/18/2024 16:23:20 -0.01,-104.81 -0.84,-100.79 456.11 80
5 10/19/2024 04:43:13 0.01,-104.76 -0.20,-105.62 98.77 80
6 10/21/2024 04:22:30 0.00,-104.77 0.75,-101.28 397.28 80
7 10/21/2024 16:42:15 0.00,-104.82 0.26,-106.08 142.80 80
8 10/23/2024 16:26:49 0.02,-104.83 -0.61,-101.71 354.52 80
9 10/24/2024 04:46:41 -0.02,-104.79 -0.41,-106.54 199.26 80
